Preview of NWS' New Version of Forecast
This preview is not operational and should not be used for support decisions.

Regional Weather Roundup (RWR)

Issued by National Weather Service (NWS)

                            
000
ASUS44 KMEG 250810
RWRTN 
TENNESSEE HOURLY STATE WEATHER ROUNDUP
NATIONAL WEATHER SERVICE MEMPHIS TN
300 AM CDT SUN AUG 25 2019

TNZ002-004-019-021-049-052-054-088>092-250900-
WEST TENNESSEE
  
CITY           SKY/WX    TMP DP  RH WIND       PRES   REMARKS
MEMPHIS INTL   LGT RAIN  75  73  93 E5        29.96F                  
NWS MEMPHIS      N/A     74 N/A N/A MISG        N/A                   
JACKSON        FAIR      74  73  97 CALM      29.99F                  
DYERSBURG      MOCLDY    71  69  93 E7        29.99F                  
SOMERVILLE     PTCLDY    73  72  94 CALM      29.97S                  
COVINGTON      CLEAR     73  73 100 CALM      29.96F                  
UNION CITY       N/A     72  64  78 NE3       29.98S                  
BOLIVAR        CLOUDY    73  72  94 CALM      29.98S                  
PARIS          MOCLDY    70  64  83 NE3       29.99F                  
HUNTINGDON     CLOUDY    72  66  83 E5        29.99F                  
LEXINGTON      PTCLDY    72  70  94 N5        29.97F                  
SELMER         CLOUDY    73  72  94 CALM      29.98S FOG              
SAVANNAH       FOG       73  73 100 CALM      29.97F VSB 1/4          
$$

TNZ008-025-027-028-033-062-065-066-250900-
NORTH MIDDLE TENNESSEE
  
CITY           SKY/WX    TMP DP  RH WIND       PRES   REMARKS
NASHVILLE      MOCLDY    73  65  75 NE3       30.00F                  
DICKSON        SUNNY     68  64  88 E3        30.00F                  
PORTLAND       CLOUDY    66  61  82 NE3       30.01F                  
CLARKSVILLE    FAIR      68  61  78 CALM      30.01F                  
LEBANON        SUNNY     70  66  88 CALM      29.99F                  
SMYRNA         FAIR      73  69  87 CALM      30.01F                  
MURFREESBORO   PTSUNNY   72  68  88 CALM      29.98F                  
COOKEVILLE     CLEAR     68  66  94 CALM      30.02F                  
LIVINGSTON     SUNNY     68  64  88 NE5       30.04F                  
GALLATIN       PTSUNNY   70  63  78 NE3       30.03F                  
CROSSVILLE     FAIR      67  64  90 SE3       30.08F                  
ROCKWOOD       CLOUDY    68  64  88 VRB5      30.07F                  
$$

TNZ061-075-076-078-094-096-097-250900-
SOUTH MIDDLE TENNESSEE
  
CITY           SKY/WX    TMP DP  RH WIND       PRES   REMARKS
LAWRENCEBURG   MOSUNNY   72  70  94 E3        29.99F                  
LEWISBURG      MOSUNNY   68  68 100 CALM      29.99F                  
FAYETTEVILLE   CLEAR     73  72  94 CALM      30.00F                  
TULLAHOMA      CLEAR     73  70  88 SE5       30.01S                  
WINCHESTER     MOCLDY    72  70  94 E5        30.02S                  
MCMINNVILLE    CLEAR     70  68  94 CALM      30.02F FOG              
COLUMBIA       CLEAR     72  70  94 CALM      29.98F                  
SHELBYVILLE    CLEAR     72  70  94 SE5       30.00F                  
$$

TNZ017-018-042-046-047-250900-
NORTHEAST TENNESSEE
  
CITY           SKY/WX    TMP DP  RH WIND       PRES   REMARKS
TRI CITIES     CLOUDY    60  57  89 CALM      30.14R                  
ELIZABETHTON   CLOUDY    64  57  77 E6        30.14S                  
GREENEVILLE    CLOUDY    66  59  77 CALM      30.10S                  
$$

TNZ012-013-036-069-073-074-250900-
CENTRAL EAST TENNESSEE
  
CITY           SKY/WX    TMP DP  RH WIND       PRES   REMARKS
KNOXVILLE      CLOUDY    69  63  81 NE9       30.05F                  
OAK RIDGE      MOCLDY    71  63  75 VRB5      30.07F                  
DOWNTOWN KNOXV CLOUDY    70  64  83 CALM      30.06F                  
GATLINBURG     CLOUDY    68  64  88 E5        30.06S                  
MORRISTOWN     CLOUDY    64  61  88 E5        30.08S                  
JACKSBORO      PTCLDY    68  64  88 CALM      30.11F                  
$$

TNZ083-085-099-250900-
SOUTHEAST TENNESSEE
  
CITY           SKY/WX    TMP DP  RH WIND       PRES   REMARKS
CHATTANOOGA    CLOUDY    73  69  87 S7        30.05R                  
DAYTON         CLOUDY    73  72  94 CALM      30.03S                  
$$

SKY/WX REPORTED AS FAIR MEANS FEW OR NO CLOUDS BELOW
12 THOUSAND FEET.